Wind_Speed
18 15 13 11 9 8 7 5 4 4 6 7 7 8 9 9 11 12 12 12 13 14 14 15 15 14 13 12 11 11 10 9 8 8 7 6 5 4 4 3 3 4 4 3
19 17 15 14 12 11 10 8 6 5 4 4 6 7 8 9 10 10 10 10 10 11 12 13 13 13 13 12 11 10 9 9 9 8 7 6 5 5 4 4 4 4 5 5
21 18 18 17 15 13 12 10 8 6 5 4 5 6 7 8 9 9 9 9 8 9 9 11 12 12 12 12 11 10 9 9 9 8 7 7 7 7 5 4 4 5 5 5
23 22 21 19 18 16 14 13 11 9 7 6 6 6 6 7 8 8 8 8 7 8 8 8 9 10 11 11 11 10 10 10 10 9 9 8 7 7 6 6 6 6 6 6
24 23 23 22 19 18 16 15 14 13 11 9 8 6 5 6 6 7 7 7 6 7 6 6 7 8 9 9 10 10 10 9 9 9 9 9 8 8 8 7 7 8 8 7
25 24 23 22 21 20 18 17 16 16 15 12 9 8 7 7 6 7 7 6 6 7 6 6 6 6 6 7 8 9 9 9 9 9 9 9 9 9 9 9 9 8 8 8
26 25 23 22 22 21 19 19 17 17 16 13 11 10 8 7 7 7 7 6 6 7 6 6 6 5 6 6 7 8 8 8 9 9 9 9 9 9 9 9 9 9 9 9
26 25 24 23 22 21 20 19 18 17 16 15 14 12 10 9 9 8 8 8 7 7 7 7 7 6 5 6 7 8 8 8 8 8 8 9 10 10 10 10 10 10 10 10
27 25 24 24 23 23 22 21 19 18 18 18 17 14 12 12 10 10 10 10 9 9 8 7 7 7 6 6 7 7 8 9 9 9 9 9 10 10 10 10 10 11 11 11
27 26 25 25 25 24 24 23 21 21 20 19 19 16 14 13 13 12 12 11 10 9 8 8 8 7 6 6 6 7 8 9 10 9 10 10 10 11 11 11 12 12 12 12
27 27 26 26 26 25 25 25 24 23 22 21 19 17 15 14 13 12 11 11 12 10 9 9 9 9 8 7 7 7 8 10 11 10 10 11 11 12 12 13 13 13 13 12
28 28 28 28 27 27 27 26 25 24 23 22 21 19 16 15 14 12 12 11 11 11 11 11 10 10 9 9 8 8 9 10 11 11 11 12 12 13 14 14 14 14 13 12
28 29 29 29 29 28 28 27 26 25 24 23 22 20 17 16 15 13 13 13 12 11 12 13 12 12 11 11 10 10 11 12 12 12 13 13 13 14 14 15 15 15 14 13
29 30 30 30 29 28 28 28 27 26 26 25 23 21 18 17 16 15 15 15 15 14 14 14 14 14 13 13 13 13 13 14 15 14 14 15 15 15 15 16 16 16 15 15
31 31 30 30 29 29 29 28 27 27 27 26 24 23 21 20 19 18 16 16 16 16 16 16 16 16 16 15 15 15 15 16 16 16 16 17 17 17 16 16 16 16 15 15
33 33 32 31 30 30 30 29 29 28 28 27 25 24 23 21 21 19 18 18 18 18 18 17 17 18 19 18 17 17 17 17 17 18 18 19 19 19 17 17 17 16 16 16
34 34 33 33 32 31 32 30 30 29 29 28 28 26 25 24 22 20 19 20 19 19 17 19 19 20 20 20 19 19 19 19 19 20 20 20 21 20 18 18 17 16 16 16
35 35 35 34 33 34 32 31 31 30 29 29 28 27 27 26 25 23 22 22 21 20 21 21 21 22 22 21 21 21 20 21 21 21 22 22 21 20 19 19 18 18 18 18
35 35 36 37 37 36 34 32 31 31 31 31 30 28 27 27 26 26 25 24 24 23 23 23 23 24 24 23 23 23 22 22 22 22 23 22 22 22 21 21 20 20 19 19
35 35 35 36 38 38 36 34 32 32 32 31 31 30 29 29 29 27 27 26 26 25 24 26 25 24 24 24 25 25 24 23 24 23 23 23 23 23 23 22 21 20 21 21
35 36 35 34 35 36 34 34 33 34 33 31 31 31 31 30 29 28 27 26 26 26 25 26 26 26 25 26 26 26 25 25 25 25 25 26 25 23 24 23 22 22 22 22
35 35 35 33 33 33 32 32 32 32 31 31 31 31 31 31 30 29 29 28 27 28 27 27 27 27 27 27 27 27 27 27 27 27 27 27 26 25 25 24 23 23 23 24
34 34 34 33 33 32 32 31 31 31 32 32 32 32 32 32 32 31 31 30 30 29 28 28 28 28 28 28 28 28 28 28 28 27 27 27 27 27 27 25 25 25 25 25
35 35 34 33 33 32 32 32 32 32 32 33 33 33 33 33 33 32 32 32 31 30 29 29 29 29 29 30 30 30 29 28 28 28 27 27 27 27 28 28 27 27 27 27
36 35 35 34 33 33 32 33 33 33 34 34 34 34 33 33 33 33 33 32 32 31 31 31 31 30 31 31 30 30 30 30 30 29 29 29 29 29 30 30 29 29 29 29
34 35 34 33 33 34 33 34 34 34 34 34 34 34 33 33 32 31 31 31 31 31 31 31 31 32 32 32 31 31 31 32 31 31 30 30 31 32 31 30 30 30 30 30
Wind_Direction
217 216 216 219 226 236 244 257 281 335 358 12 16 24 24 32 33 32 32 36 41 43 45 46 46 49 52 53 52 52 50 50 50 49 48 45 41 33 25 13 359 350 342 327
218 219 219 222 229 238 245 256 270 304 324 350 9 17 14 20 27 29 28 30 35 39 43 45 46 46 48 49 48 46 43 44 42 40 35 27 22 20 13 4 3 350 337 327
219 219 220 223 227 235 246 254 261 274 292 313 337 359 9 19 26 26 24 22 25 33 37 40 43 44 45 45 43 39 34 32 30 28 27 21 15 11 8 1 353 344 333 322
217 218 221 225 228 234 241 251 254 258 270 289 313 340 5 11 14 14 16 16 16 23 27 36 40 39 40 39 35 31 28 27 25 25 25 22 20 17 12 359 347 340 337 326
218 220 223 225 229 234 240 247 248 252 264 273 288 304 330 337 351 356 3 12 12 13 14 22 31 32 33 31 26 22 20 21 20 19 18 17 15 10 2 357 350 343 339 334
219 222 224 225 228 233 237 242 248 251 258 267 280 290 301 316 326 337 344 355 2 3 6 9 17 21 27 28 23 19 14 14 12 10 9 7 5 3 1 357 352 347 339 333
220 221 222 224 226 231 236 239 245 249 254 264 274 283 293 299 305 311 322 331 342 349 354 358 356 359 16 20 20 18 14 11 7 3 360 358 357 356 353 350 347 345 339 332
221 221 223 224 226 231 234 239 245 252 255 263 269 280 289 291 293 295 303 310 317 330 336 339 337 343 1 4 2 3 5 5 1 355 352 351 348 346 346 344 340 336 334 333
221 223 224 226 228 232 235 239 245 254 257 261 268 277 283 287 287 290 297 300 302 314 319 319 320 330 340 345 348 349 353 353 353 352 348 347 347 344 344 342 338 333 330 328
222 222 222 224 227 230 234 238 245 252 258 263 269 276 280 285 291 291 289 291 293 298 301 309 313 318 322 325 332 339 342 352 354 353 348 345 346 343 341 338 334 329 325 321
223 224 222 224 228 231 234 237 243 249 256 263 269 275 282 286 290 293 291 291 291 288 291 303 306 306 304 307 317 327 335 340 342 341 341 339 338 336 333 330 326 326 323 319
226 227 224 225 229 231 234 237 242 250 256 263 269 273 278 283 284 287 287 288 290 284 289 297 297 296 299 305 310 319 324 329 331 331 329 329 329 328 325 324 323 322 320 316
228 229 228 227 229 233 237 240 244 249 255 261 268 271 273 279 280 280 280 281 285 283 287 290 289 292 298 299 302 308 314 317 319 317 317 320 321 319 318 320 319 315 313 311
231 232 232 233 233 236 240 243 245 249 254 259 265 269 268 272 275 278 279 280 282 279 285 285 284 287 291 293 298 301 304 307 312 312 311 313 314 313 314 316 316 313 309 308
234 235 235 236 236 237 241 244 246 249 253 258 263 268 268 269 272 275 277 279 278 275 279 281 282 283 285 287 291 294 296 300 304 308 310 312 313 311 310 312 313 313 312 310
235 237 238 238 238 240 241 243 246 248 252 255 259 264 267 267 270 273 276 278 277 276 278 280 280 285 286 285 287 289 291 294 298 301 304 308 308 309 308 310 311 310 309 309
236 237 238 239 240 242 242 243 246 249 252 254 258 263 265 266 269 273 274 276 277 278 277 279 281 282 283 281 282 284 287 290 293 297 300 304 307 307 305 307 309 309 310 310
236 237 239 241 242 244 245 245 246 249 252 256 258 260 263 268 267 269 271 273 274 275 276 278 278 282 282 282 283 284 286 288 290 294 297 300 304 305 304 303 304 304 304 305
238 240 241 242 244 246 247 246 248 251 253 255 256 258 260 265 266 268 269 271 274 275 277 278 279 282 282 281 281 282 284 286 288 291 295 296 298 302 301 300 299 299 298 299
240 241 242 243 245 247 247 248 249 251 252 254 255 258 261 264 266 268 270 271 273 272 274 278 278 280 279 280 280 281 283 285 287 288 291 293 295 296 296 296 296 295 294 296
239 241 243 244 246 247 248 250 251 252 254 255 256 258 261 263 265 267 269 270 270 269 272 276 277 278 279 279 279 281 283 284 284 286 289 290 290 291 293 293 294 294 294 296
239 242 243 244 246 247 249 251 252 254 253 255 257 259 260 261 263 264 267 267 267 267 271 274 276 277 278 280 281 281 281 282 283 286 289 291 290 290 293 293 291 291 293 295
239 241 244 244 246 248 250 252 253 253 254 255 257 259 260 261 263 264 265 266 265 266 268 270 271 274 276 279 281 282 282 282 283 284 286 289 291 291 293 295 295 292 292 293
241 242 243 243 244 247 250 251 252 254 255 255 256 258 260 261 263 264 266 265 264 265 264 266 269 273 277 279 281 283 282 282 283 283 284 286 287 288 289 292 294 294 292 293
242 242 243 244 245 247 249 251 253 255 257 257 258 259 260 260 260 263 265 265 264 263 265 268 269 272 275 278 280 281 283 282 280 281 281 283 285 287 287 288 290 292 292 292
240 241 243 244 245 247 249 251 252 254 257 258 258 259 260 261 261 262 263 262 263 264 267 270 270 272 274 276 278 279 281 282 280 280 280 283 284 285 287 287 288 290 292 292
Height
5904 5907 5909 5910 5911 5912 5912 5913 5913 5913 5913 5912 5912 5911 5910 5909 5908 5906 5904 5902 5901 5899 5898 5896 5894 5892 5890 5889 5888 5887 5886 5885 5884 5884 5883 5882 5882 5881 5881 5880 5880 5880 5879 5878
5903 5905 5908 5908 5909 5910 5911 5912 5913 5913 5913 5912 5912 5912 5911 5910 5908 5907 5906 5904 5903 5901 5900 5898 5896 5894 5892 5891 5890 5889 5887 5886 5885 5885 5884 5883 5882 5881 5881 5880 5880 5879 5878 5878
5900 5904 5905 5907 5908 5909 5910 5911 5912 5912 5912 5912 5912 5912 5912 5910 5909 5908 5907 5905 5904 5902 5901 5899 5897 5896 5894 5892 5891 5890 5889 5888 5887 5886 5884 5884 5882 5881 5880 5880 5880 5879 5878 5877
5897 5900 5902 5904 5906 5907 5909 5910 5910 5911 5911 5912 5912 5912 5912 5911 5910 5909 5908 5907 5905 5903 5902 5900 5899 5897 5895 5894 5892 5891 5890 5889 5887 5886 5885 5884 5883 5882 5881 5880 5879 5878 5877 5875
5894 5897 5899 5902 5904 5906 5907 5908 5909 5909 5910 5911 5911 5911 5912 5911 5910 5909 5908 5907 5906 5904 5902 5901 5900 5898 5897 5895 5894 5892 5891 5889 5888 5887 5886 5884 5883 5882 5881 5880 5879 5877 5876 5874
5891 5893 5896 5899 5902 5903 5904 5905 5906 5907 5908 5909 5910 5910 5911 5910 5910 5909 5908 5907 5906 5904 5903 5901 5900 5898 5896 5895 5894 5893 5892 5890 5889 5887 5886 5885 5883 5882 5881 5879 5878 5877 5875 5874
5887 5890 5893 5896 5898 5900 5901 5903 5905 5905 5906 5907 5908 5908 5909 5909 5908 5908 5907 5907 5906 5904 5902 5901 5900 5898 5896 5895 5894 5893 5892 5890 5889 5887 5886 5885 5883 5882 5880 5879 5877 5875 5874 5872
5883 5886 5889 5892 5895 5897 5899 5901 5903 5903 5904 5905 5905 5906 5908 5907 5906 5906 5906 5905 5905 5904 5902 5901 5900 5898 5896 5895 5894 5892 5891 5890 5888 5887 5885 5884 5883 5881 5879 5878 5876 5874 5872 5871
5879 5883 5886 5889 5892 5894 5895 5897 5899 5900 5901 5902 5902 5904 5905 5905 5904 5904 5904 5904 5903 5902 5901 5900 5899 5898 5896 5894 5893 5892 5890 5889 5887 5886 5884 5883 5881 5880 5878 5876 5874 5872 5870 5869
5874 5879 5882 5885 5888 5890 5892 5894 5895 5897 5898 5898 5900 5901 5902 5902 5902 5902 5902 5901 5901 5900 5899 5898 5897 5896 5895 5893 5892 5891 5890 5888 5886 5885 5883 5882 5880 5878 5876 5874 5872 5870 5868 5866
5870 5874 5878 5880 5882 5885 5888 5890 5891 5893 5894 5895 5896 5900 5899 5899 5899 5899 5899 5899 5898 5897 5897 5896 5895 5894 5893 5892 5891 5889 5888 5886 5885 5883 5882 5880 5878 5876 5874 5872 5870 5868 5866 5864
5865 5869 5872 5875 5878 5880 5883 5885 5888 5890 5891 5892 5893 5898 5896 5896 5896 5896 5896 5896 5895 5894 5894 5893 5892 5891 5891 5890 5889 5887 5886 5884 5883 5881 5880 5878 5876 5874 5872 5870 5867 5865 5863 5861
5860 5863 5867 5870 5874 5876 5878 5880 5883 5885 5886 5887 5889 5894 5892 5893 5893 5893 5893 5893 5892 5891 5891 5890 5889 5889 5888 5887 5886 5885 5884 5882 5880 5879 5877 5876 5873 5871 5869 5867 5864 5862 5860 5858
5855 5858 5862 5865 5868 5871 5873 5875 5877 5880 5881 5883 5884 5887 5888 5888 5889 5889 5889 5889 5889 5888 5888 5887 5886 5886 5885 5884 5883 5882 5881 5880 5878 5876 5874 5871 5869 5867 5866 5863 5861 5858 5857 5855
5848 5852 5855 5859 5862 5865 5867 5870 5872 5874 5876 5878 5880 5882 5883 5884 5885 5885 5885 5885 5885 5884 5884 5884 5883 5882 5881 5881 5880 5878 5877 5876 5875 5873 5870 5868 5866 5864 5862 5860 5858 5855 5853 5851
5841 5845 5849 5852 5856 5858 5861 5864 5866 5869 5871 5873 5875 5877 5878 5879 5879 5880 5880 5880 5880 5880 5879 5879 5878 5878 5877 5876 5875 5875 5874 5872 5871 5869 5866 5864 5862 5860 5858 5856 5854 5852 5850 5848
5835 5838 5842 5846 5849 5851 5854 5858 5860 5863 5865 5867 5869 5871 5872 5873 5874 5875 5875 5875 5875 5875 5874 5873 5873 5873 5872 5871 5870 5869 5869 5868 5866 5864 5862 5860 5858 5855 5853 5852 5850 5848 5846 5844
5828 5831 5834 5838 5842 5844 5850 5851 5854 5856 5858 5860 5862 5865 5866 5867 5868 5869 5870 5870 5870 5870 5869 5868 5868 5867 5866 5865 5864 5864 5863 5862 5861 5859 5857 5855 5853 5851 5849 5848 5846 5844 5842 5840
5820 5823 5826 5830 5833 5836 5841 5843 5846 5849 5851 5853 5856 5858 5859 5861 5862 5863 5863 5864 5864 5864 5864 5863 5862 5861 5860 5860 5859 5858 5858 5856 5855 5853 5851 5849 5848 5846 5845 5843 5841 5839 5837 5835
5812 5815 5819 5821 5824 5828 5834 5837 5839 5842 5843 5846 5848 5850 5852 5854 5855 5857 5857 5857 5857 5857 5857 5857 5856 5855 5855 5854 5853 5852 5851 5850 5848 5847 5845 5843 5841 5840 5838 5837 5835 5833 5831 5829
5804 5807 5810 5813 5816 5820 5825 5828 5832 5835 5838 5839 5841 5843 5844 5846 5848 5849 5849 5850 5850 5850 5850 5850 5849 5849 5848 5847 5846 5845 5844 5843 5841 5839 5838 5836 5834 5832 5831 5830 5828 5827 5825 5823
5796 5800 5803 5806 5810 5815 5817 5820 5824 5826 5829 5830 5832 5834 5836 5838 5840 5841 5842 5842 5842 5842 5843 5842 5842 5841 5841 5840 5839 5838 5837 5836 5834 5832 5831 5829 5827 5825 5824 5823 5821 5820 5818 5816
5788 5793 5795 5800 5804 5807 5809 5812 5814 5817 5820 5822 5824 5826 5828 5830 5831 5832 5833 5834 5834 5834 5834 5835 5834 5834 5833 5832 5831 5830 5829 5828 5827 5826 5824 5822 5820 5819 5817 5816 5814 5813 5811 5809
5781 5784 5788 5791 5795 5798 5801 5803 5806 5808 5811 5813 5815 5817 5819 5820 5822 5823 5824 5825 5825 5825 5826 5826 5826 5826 5825 5824 5823 5822 5821 5820 5819 5818 5817 5815 5814 5813 5811 5809 5808 5806 5804 5801
5773 5777 5780 5783 5787 5790 5792 5795 5797 5799 5802 5804 5806 5808 5809 5811 5813 5814 5814 5815 5816 5817 5817 5817 5817 5817 5816 5815 5815 5814 5813 5812 5811 5810 5808 5807 5806 5805 5803 5802 5800 5798 5796 5794
5765 5769 5772 5776 5779 5782 5785 5786 5789 5791 5793 5795 5797 5799 5800 5802 5803 5804 5805 5806 5806 5807 5807 5808 5807 5807 5807 5806 5806 5805 5804 5803 5802 5801 5800 5799 5797 5796 5794 5793 5791 5789 5787 5785